FENGYUN 1C DEB, 38149

Orbit data source: Space-Track

FENGYUN 1C DEB, 38149 is space debris in SSO originally from a launch on Mon, 10 May 1999 UTC launched from the Taiyaun Space Center, China (TSC). Fengyun 1C debris stems from the Chinese weather satellite Fengyun-1C, which was intentionally destroyed by a Chinese anti-satellite missile in 2007. This event dramatically increased the amount of space debris, with thousands of trackable fragments posing hazards to satellites and human spaceflight. The Fengyun 1C debris cloud has become a focal point in discussions about space sustainability and the need for international regulations to prevent the creation of new debris.

Loading next visibility...
Identifier
38149, 1999-025EQW
Orbit
SSO
Country
Flag of CNCN / PRC
Related business
Manufacturer
Unknown
Mission
Spacecraft
Bus & Motor
Unknown
Mass
Unknown
Launch date (UTC)
1999-05-10 (26 years ago)
Launch vehicle
Unknown
Launch site
Taiyaun Space Center, China (TSC)
Object type
Payload
Rocket body
Debris
Shape & HBR
Unknown shape, 0.1 m
Radar Cross Section
Small (<0.1 m²)

Expand to show TLE details & history
Last TLE update: 1 week ago

TLE from 1 week ago
0 FENGYUN 1C DEB
1 38149U 99025EQW 25302.70484910  .00000843  00000-0  36072-3 0  9991
2 38149  98.3557 296.9779 0076714 291.8671  67.4365 14.25843173698600
Epoch: 2025-10-29T16:54Z
TLE epoch observation values (Epoch: 2025-10-29T16:54:58.962Z)
Latitude
0.00006°
Longitude
4.95806°
Altitude
787.805 km
Speed
7.471 km/s
True Right ascension
19h 47m 54s
True Declination
0° 00' 00"
Sunlit
Object was in daylight at epoch
Visualization orbit readout
Latitude
Unknown
Longitude
Unknown
Altitude
Unknown
Speed
Unknown
Apparent Right ascension
Unknown
Apparent Declination
Unknown
Sunlit
N/A
Visualization observer readout
Local Sidereal Time
09:19:39
Azimuth
Unknown
Elevation
Unknown
Doppler factor
Unknown
Orbital elements
Apogee altitude
857.881 km
Perigee altitude
747.705 km
Semi-major axis
7,180.93 km
Eccentricity
0.00767
Inclination
98.3557°
RAAN
296.9779°
Arg. of periapsis
291.8671°
True anomaly
68.25126°
Mean anomaly
67.4365°
Eccentric anomaly
67.84358°
Mean motion
3.56675 °/min
Orbital period
100.93 mins
BSTAR
0.00036072
Loading maneuver chart data...
Computing Atmospheric mass density...

Documentation

Showing up to 5 results
|